• In Uzbekistan
  • List of Countries
  • For 7 days
  • Water Temperature
  • Satellite Maps
  • Weather Map
  • Weather Widgets
  • user-avatar
    Login

    Hourly Weather Klagenfurt

    Today, 19 January, Thursday

    Time Temperature Precipitation Wind Pressure Humidity
    00:00 -10°C° 0 mm 2 mps 696 mmHg 92%
    01:00 -9°C° 0 mm 1 mps 696 mmHg 93%
    02:00 -10°C° 0 mm 2 mps 696 mmHg 93%
    03:00 -10°C° 0 mm 2 mps 696 mmHg 93%
    04:00 -12°C° 0 mm 2 mps 696 mmHg 92%
    05:00 -12°C° 0 mm 2 mps 696 mmHg 92%
    06:00 -12°C° 0 mm 2 mps 696 mmHg 92%
    07:00 -13°C° 0 mm 2 mps 696 mmHg 93%
    08:00 -10°C° 0 mm 2 mps 697 mmHg 90%
    09:00 -8°C° 0 mm 2 mps 697 mmHg 86%
    10:00 -6°C° 0 mm 2 mps 698 mmHg 83%
    11:00 -5°C° 0 mm 2 mps 698 mmHg 82%
    12:00 -4°C° 0 mm 2 mps 698 mmHg 81%
    13:00 -3°C° 0 mm 2 mps 698 mmHg 79%
    14:00 -4°C° 0 mm 2 mps 698 mmHg 83%
    15:00 -5°C° 0 mm 2 mps 697 mmHg 86%
    16:00 -4°C° 0 mm 1 mps 697 mmHg 90%
    17:00 -7°C° 0 mm 1 mps 697 mmHg 91%
    18:00 -8°C° 0 mm 1 mps 697 mmHg 93%
    19:00 -10°C° 0 mm 1 mps 697 mmHg 94%
    20:00 -10°C° 0 mm 1 mps 697 mmHg 94%
    21:00 -11°C° 0 mm 1 mps 697 mmHg 94%
    22:00 -11°C° 0 mm 1 mps 697 mmHg 93%
    23:00 -11°C° 0 mm 1 mps 697 mmHg 93%

    Tomorrow, 20 January, Friday

    Time Temperature Precipitation Wind Pressure Humidity
    00:00 -11°C° 0 mm 1 mps 697 mmHg 93%
    01:00 -12°C° 0 mm 1 mps 697 mmHg 93%
    02:00 -12°C° 0 mm 1 mps 697 mmHg 92%
    03:00 -12°C° 0 mm 1 mps 697 mmHg 92%
    04:00 -12°C° 0 mm 1 mps 697 mmHg 92%
    05:00 -12°C° 0 mm 1 mps 697 mmHg 92%
    06:00 -12°C° 0 mm 1 mps 697 mmHg 92%
    07:00 -12°C° 0 mm 1 mps 697 mmHg 91%
    08:00 -10°C° 0 mm 1 mps 697 mmHg 87%
    09:00 -7°C° 0 mm 1 mps 698 mmHg 83%
    10:00 -4°C° 0 mm 1 mps 699 mmHg 79%
    11:00 -3°C° 0 mm 1 mps 699 mmHg 78%
    12:00 -2°C° 0 mm 1 mps 698 mmHg 77%
    13:00 -1°C° 0 mm 1 mps 698 mmHg 76%
    14:00 -2°C° 0 mm 1 mps 698 mmHg 81%
    15:00 -3°C° 0 mm 1 mps 698 mmHg 86%
    16:00 -4°C° 0 mm 1 mps 697 mmHg 90%
    17:00 -7°C° 0 mm 1 mps 697 mmHg 92%
    18:00 -8°C° 0 mm 1 mps 697 mmHg 94%
    19:00 -10°C° 0 mm 1 mps 696 mmHg 96%
    20:00 -10°C° 0 mm 1 mps 696 mmHg 96%
    21:00 -10°C° 0 mm 1 mps 696 mmHg 95%
    22:00 -11°C° 0 mm 1 mps 696 mmHg 95%
    23:00 -11°C° 0 mm 1 mps 696 mmHg 95%

    Day after tomorrow, 21 January, Saturday

    Time Temperature Precipitation Wind Pressure Humidity
    00:00 -11°C° 0 mm 1 mps 696 mmHg 95%
    01:00 -11°C° 0 mm 1 mps 696 mmHg 94%
    02:00 -11°C° 0 mm 1 mps 696 mmHg 94%
    03:00 -11°C° 0 mm 1 mps 695 mmHg 94%
    04:00 -11°C° 0 mm 1 mps 695 mmHg 93%
    05:00 -11°C° 0 mm 1 mps 695 mmHg 93%
    06:00 -11°C° 0 mm 1 mps 695 mmHg 93%
    07:00 -11°C° 0 mm 1 mps 695 mmHg 92%
    08:00 -8°C° 0 mm 1 mps 696 mmHg 88%
    09:00 -4°C° 0 mm 1 mps 697 mmHg 83%
    10:00 -2°C° 0 mm 1 mps 698 mmHg 78%
    11:00 0°C° 0 mm 1 mps 697 mmHg 78%
    12:00 +1°C° 0 mm 1 mps 697 mmHg 78%
    13:00 +2°C° 0 mm 1 mps 697 mmHg 78%
    14:00 0°C° 0 mm 1 mps 697 mmHg 83%
    15:00 -1°C° 0 mm 1 mps 696 mmHg 88%
    16:00 -2°C° 0 mm 1 mps 696 mmHg 93%
    17:00 -4°C° 0 mm 1 mps 696 mmHg 94%
    18:00 -6°C° 0 mm 1 mps 696 mmHg 95%
    19:00 -7°C° 0 mm 1 mps 695 mmHg 97%
    20:00 -8°C° 0 mm 1 mps 696 mmHg 97%
    21:00 -8°C° 0 mm 1 mps 696 mmHg 96%
    22:00 -8°C° 0 mm 1 mps 696 mmHg 96%
    23:00 -8°C° 0 mm 1 mps 696 mmHg 96%

    22 January, Sunday

    Time Temperature Precipitation Wind Pressure Humidity
    00:00 -8°C° 0 mm 1 mps 696 mmHg 96%
    01:00 -8°C° 0 mm 1 mps 696 mmHg 96%
    02:00 -8°C° 0 mm 1 mps 696 mmHg 96%
    03:00 -8°C° 0 mm 1 mps 696 mmHg 96%
    04:00 -8°C° 0 mm 1 mps 695 mmHg 96%
    05:00 -8°C° 0 mm 1 mps 695 mmHg 96%
    06:00 -9°C° 0 mm 1 mps 695 mmHg 96%
    07:00 -9°C° 0 mm 1 mps 695 mmHg 96%
    08:00 -7°C° 0 mm 1 mps 696 mmHg 92%
    09:00 -4°C° 0 mm 1 mps 696 mmHg 89%
    10:00 -2°C° 0 mm 1 mps 696 mmHg 85%
    11:00 -1°C° 0 mm 1 mps 696 mmHg 83%
    12:00 0°C° 0 mm 1 mps 696 mmHg 81%
    13:00 +1°C° 0 mm 1 mps 696 mmHg 79%
    14:00 0°C° 0 mm 1 mps 696 mmHg 83%
    15:00 -1°C° 0 mm 1 mps 695 mmHg 86%
    16:00 -2°C° 0 mm 1 mps 695 mmHg 90%
    17:00 -3°C° 0 mm 1 mps 695 mmHg 91%
    18:00 -6°C° 0 mm 1 mps 694 mmHg 92%
    19:00 -7°C° 0 mm 1 mps 694 mmHg 93%
    20:00 -7°C° 0 mm 1 mps 694 mmHg 92%
    21:00 -8°C° 0 mm 1 mps 694 mmHg 91%
    22:00 -8°C° 0 mm 1 mps 694 mmHg 90%
    23:00 -8°C° 0 mm 1 mps 693 mmHg 89%

    23 January, Monday

    Time Temperature Precipitation Wind Pressure Humidity
    00:00 -8°C° 0 mm 1 mps 693 mmHg 89%
    01:00 -8°C° 0 mm 1 mps 693 mmHg 88%
    02:00 -8°C° 0 mm 1 mps 692 mmHg 88%
    03:00 -8°C° 0 mm 1 mps 692 mmHg 88%
    04:00 -8°C° 0 mm 1 mps 692 mmHg 88%
    05:00 -8°C° 0 mm 1 mps 692 mmHg 88%
    06:00 -8°C° 0 mm 1 mps 692 mmHg 88%
    07:00 -8°C° 0 mm 1 mps 691 mmHg 88%
    08:00 -4°C° 0 mm 1 mps 692 mmHg 83%
    09:00 -2°C° 0 mm 1 mps 693 mmHg 79%
    10:00 0°C° 0 mm 1 mps 693 mmHg 75%
    11:00 +1°C° 0 mm 1 mps 693 mmHg 75%
    12:00 +2°C° 0 mm 1 mps 693 mmHg 75%
    13:00 +3°C° 0 mm 0 mps 692 mmHg 75%
    14:00 +2°C° 0 mm 1 mps 692 mmHg 79%
    15:00 +1°C° 0 mm 1 mps 691 mmHg 84%
    16:00 0°C° 0 mm 1 mps 690 mmHg 89%
    17:00 -2°C° 0 mm 1 mps 690 mmHg 90%
    18:00 -3°C° 0 mm 1 mps 690 mmHg 91%
    19:00 -6°C° 0 mm 1 mps 690 mmHg 93%
    20:00 -6°C° 0 mm 1 mps 690 mmHg 93%
    21:00 -6°C° 0 mm 1 mps 689 mmHg 92%
    22:00 -6°C° 0 mm 1 mps 689 mmHg 92%
    23:00 -6°C° 0 mm 1 mps 689 mmHg 92%

    24 January, Tuesday

    Time Temperature Precipitation Wind Pressure Humidity
    00:00 -6°C° 0 mm 1 mps 689 mmHg 92%
    01:00 -7°C° 0 mm 1 mps 689 mmHg 92%
    02:00 -6°C° 0 mm 1 mps 689 mmHg 92%
    03:00 -6°C° 0 mm 1 mps 689 mmHg 91%
    04:00 -6°C° 0 mm 1 mps 688 mmHg 90%
    05:00 -6°C° 0 mm 1 mps 689 mmHg 90%
    06:00 -4°C° 0 mm 1 mps 689 mmHg 90%
    07:00 -4°C° 0 mm 1 mps 689 mmHg 89%
    08:00 -3°C° 0 mm 1 mps 690 mmHg 87%
    09:00 -2°C° 0 mm 1 mps 690 mmHg 85%
    10:00 -1°C° 0 mm 1 mps 691 mmHg 83%
    11:00 0°C° 0 mm 1 mps 690 mmHg 82%
    12:00 0°C° 0 mm 1 mps 690 mmHg 81%
    13:00 +1°C° 0 mm 1 mps 690 mmHg 81%
    14:00 +1°C° 0 mm 1 mps 690 mmHg 84%
    15:00 0°C° 0 mm 1 mps 690 mmHg 87%
    16:00 -1°C° 0 mm 1 mps 690 mmHg 90%
    17:00 -2°C° 0 mm 1 mps 690 mmHg 91%
    18:00 -3°C° 0 mm 1 mps 690 mmHg 92%
    19:00 -4°C° 0 mm 1 mps 691 mmHg 94%
    20:00 -4°C° 0 mm 1 mps 691 mmHg 94%
    21:00 -4°C° 0 mm 1 mps 691 mmHg 94%
    22:00 -6°C° 0 mm 1 mps 691 mmHg 94%
    23:00 -6°C° 0 mm 1 mps 691 mmHg 93%
    Show more